Index of /20260429/WXO-DD/model_rdps/10km/12/050
Name Last modified Size Description
Parent Directory -
20260429T12Z_MSC_RDPS_AbsoluteVorticity_IsbL-0250_RLatLon0.09_PT050H.grib2 2026-04-29 14:59 594K
20260429T12Z_MSC_RDPS_AbsoluteVorticity_IsbL-0500_RLatLon0.09_PT050H.grib2 2026-04-29 14:59 557K
20260429T12Z_MSC_RDPS_AbsoluteVorticity_IsbL-0700_RLatLon0.09_PT050H.grib2 2026-04-29 14:59 612K
20260429T12Z_MSC_RDPS_AbsoluteVorticity_IsbL-0850_RLatLon0.09_PT050H.grib2 2026-04-29 14:59 772K
20260429T12Z_MSC_RDPS_AirTemp_AGL-120m_RLatLon0.09_PT050H.grib2 2026-04-29 14:59 382K
20260429T12Z_MSC_RDPS_AirTemp_AGL-2m_RLatLon0.09_PT050H.grib2 2026-04-29 14:59 629K
20260429T12Z_MSC_RDPS_AirTemp_AGL-40m_RLatLon0.09_PT050H.grib2 2026-04-29 14:59 398K
20260429T12Z_MSC_RDPS_AirTemp_AGL-80m_RLatLon0.09_PT050H.grib2 2026-04-29 14:59 390K
20260429T12Z_MSC_RDPS_AirTemp_IsbL-0001_RLatLon0.09_PT050H.grib2 2026-04-29 14:59 314K
20260429T12Z_MSC_RDPS_AirTemp_IsbL-0005_RLatLon0.09_PT050H.grib2 2026-04-29 14:59 289K
20260429T12Z_MSC_RDPS_AirTemp_IsbL-0010_RLatLon0.09_PT050H.grib2 2026-04-29 14:59 389K
20260429T12Z_MSC_RDPS_AirTemp_IsbL-0020_RLatLon0.09_PT050H.grib2 2026-04-29 14:59 414K
20260429T12Z_MSC_RDPS_AirTemp_IsbL-0030_RLatLon0.09_PT050H.grib2 2026-04-29 14:59 337K
20260429T12Z_MSC_RDPS_AirTemp_IsbL-0050_RLatLon0.09_PT050H.grib2 2026-04-29 14:59 313K
20260429T12Z_MSC_RDPS_AirTemp_IsbL-0100_RLatLon0.09_PT050H.grib2 2026-04-29 14:59 421K
20260429T12Z_MSC_RDPS_AirTemp_IsbL-0150_RLatLon0.09_PT050H.grib2 2026-04-29 14:59 415K
20260429T12Z_MSC_RDPS_AirTemp_IsbL-0175_RLatLon0.09_PT050H.grib2 2026-04-29 14:59 409K
20260429T12Z_MSC_RDPS_AirTemp_IsbL-0200_RLatLon0.09_PT050H.grib2 2026-04-29 14:59 414K
20260429T12Z_MSC_RDPS_AirTemp_IsbL-0225_RLatLon0.09_PT050H.grib2 2026-04-29 14:59 413K
20260429T12Z_MSC_RDPS_AirTemp_IsbL-0250_RLatLon0.09_PT050H.grib2 2026-04-29 14:59 417K
20260429T12Z_MSC_RDPS_AirTemp_IsbL-0275_RLatLon0.09_PT050H.grib2 2026-04-29 14:59 397K
20260429T12Z_MSC_RDPS_AirTemp_IsbL-0300_RLatLon0.09_PT050H.grib2 2026-04-29 14:59 402K
20260429T12Z_MSC_RDPS_AirTemp_IsbL-0350_RLatLon0.09_PT050H.grib2 2026-04-29 14:59 417K
20260429T12Z_MSC_RDPS_AirTemp_IsbL-0400_RLatLon0.09_PT050H.grib2 2026-04-29 14:59 419K
20260429T12Z_MSC_RDPS_AirTemp_IsbL-0450_RLatLon0.09_PT050H.grib2 2026-04-29 14:59 426K
20260429T12Z_MSC_RDPS_AirTemp_IsbL-0500_RLatLon0.09_PT050H.grib2 2026-04-29 14:59 401K
20260429T12Z_MSC_RDPS_AirTemp_IsbL-0550_RLatLon0.09_PT050H.grib2 2026-04-29 14:59 419K
20260429T12Z_MSC_RDPS_AirTemp_IsbL-0600_RLatLon0.09_PT050H.grib2 2026-04-29 14:59 437K
20260429T12Z_MSC_RDPS_AirTemp_IsbL-0650_RLatLon0.09_PT050H.grib2 2026-04-29 14:59 454K
20260429T12Z_MSC_RDPS_AirTemp_IsbL-0700_RLatLon0.09_PT050H.grib2 2026-04-29 14:59 475K
20260429T12Z_MSC_RDPS_AirTemp_IsbL-0750_RLatLon0.09_PT050H.grib2 2026-04-29 14:59 511K
20260429T12Z_MSC_RDPS_AirTemp_IsbL-0800_RLatLon0.09_PT050H.grib2 2026-04-29 14:59 562K
20260429T12Z_MSC_RDPS_AirTemp_IsbL-0850_RLatLon0.09_PT050H.grib2 2026-04-29 14:59 624K
20260429T12Z_MSC_RDPS_AirTemp_IsbL-0875_RLatLon0.09_PT050H.grib2 2026-04-29 14:59 649K
20260429T12Z_MSC_RDPS_AirTemp_IsbL-0900_RLatLon0.09_PT050H.grib2 2026-04-29 14:59 529K
20260429T12Z_MSC_RDPS_AirTemp_IsbL-0925_RLatLon0.09_PT050H.grib2 2026-04-29 14:59 527K
20260429T12Z_MSC_RDPS_AirTemp_IsbL-0950_RLatLon0.09_PT050H.grib2 2026-04-29 14:59 531K
20260429T12Z_MSC_RDPS_AirTemp_IsbL-0970_RLatLon0.09_PT050H.grib2 2026-04-29 14:59 525K
20260429T12Z_MSC_RDPS_AirTemp_IsbL-0985_RLatLon0.09_PT050H.grib2 2026-04-29 14:59 515K
20260429T12Z_MSC_RDPS_AirTemp_IsbL-1000_RLatLon0.09_PT050H.grib2 2026-04-29 14:59 500K
20260429T12Z_MSC_RDPS_AirTemp_IsbL-1015_RLatLon0.09_PT050H.grib2 2026-04-29 14:59 497K
20260429T12Z_MSC_RDPS_Albedo_Sfc_RLatLon0.09_PT050H.grib2 2026-04-29 14:59 159K
20260429T12Z_MSC_RDPS_CAPE_Sfc_RLatLon0.09_PT050H.grib2 2026-04-29 14:59 1.6M
20260429T12Z_MSC_RDPS_CIN_Sfc_RLatLon0.09_PT050H.grib2 2026-04-29 14:59 1.1M
20260429T12Z_MSC_RDPS_CloudWater_EAtm_RLatLon0.09_PT050H.grib2 2026-04-29 14:59 218K
20260429T12Z_MSC_RDPS_ConvectivePrecip-Accum_Sfc_RLatLon0.09_PT050H.grib2 2026-04-29 14:59 1.0M
20260429T12Z_MSC_RDPS_DewPointDepression_AGL-2m_RLatLon0.09_PT050H.grib2 2026-04-29 14:59 408K
20260429T12Z_MSC_RDPS_DewPointDepression_IsbL-0001_RLatLon0.09_PT050H.grib2 2026-04-29 14:59 193
20260429T12Z_MSC_RDPS_DewPointDepression_IsbL-0005_RLatLon0.09_PT050H.grib2 2026-04-29 14:59 193
20260429T12Z_MSC_RDPS_DewPointDepression_IsbL-0010_RLatLon0.09_PT050H.grib2 2026-04-29 14:59 193
20260429T12Z_MSC_RDPS_DewPointDepression_IsbL-0020_RLatLon0.09_PT050H.grib2 2026-04-29 14:59 193
20260429T12Z_MSC_RDPS_DewPointDepression_IsbL-0030_RLatLon0.09_PT050H.grib2 2026-04-29 14:59 193
20260429T12Z_MSC_RDPS_DewPointDepression_IsbL-0050_RLatLon0.09_PT050H.grib2 2026-04-29 14:59 81K
20260429T12Z_MSC_RDPS_DewPointDepression_IsbL-0100_RLatLon0.09_PT050H.grib2 2026-04-29 14:59 126K
20260429T12Z_MSC_RDPS_DewPointDepression_IsbL-0150_RLatLon0.09_PT050H.grib2 2026-04-29 14:59 147K
20260429T12Z_MSC_RDPS_DewPointDepression_IsbL-0175_RLatLon0.09_PT050H.grib2 2026-04-29 14:59 179K
20260429T12Z_MSC_RDPS_DewPointDepression_IsbL-0200_RLatLon0.09_PT050H.grib2 2026-04-29 14:59 215K
20260429T12Z_MSC_RDPS_DewPointDepression_IsbL-0225_RLatLon0.09_PT050H.grib2 2026-04-29 14:59 255K
20260429T12Z_MSC_RDPS_DewPointDepression_IsbL-0250_RLatLon0.09_PT050H.grib2 2026-04-29 14:59 293K
20260429T12Z_MSC_RDPS_DewPointDepression_IsbL-0275_RLatLon0.09_PT050H.grib2 2026-04-29 14:59 300K
20260429T12Z_MSC_RDPS_DewPointDepression_IsbL-0300_RLatLon0.09_PT050H.grib2 2026-04-29 14:59 322K
20260429T12Z_MSC_RDPS_DewPointDepression_IsbL-0350_RLatLon0.09_PT050H.grib2 2026-04-29 14:59 327K
20260429T12Z_MSC_RDPS_DewPointDepression_IsbL-0400_RLatLon0.09_PT050H.grib2 2026-04-29 14:59 338K
20260429T12Z_MSC_RDPS_DewPointDepression_IsbL-0450_RLatLon0.09_PT050H.grib2 2026-04-29 14:59 345K
20260429T12Z_MSC_RDPS_DewPointDepression_IsbL-0500_RLatLon0.09_PT050H.grib2 2026-04-29 14:59 349K
20260429T12Z_MSC_RDPS_DewPointDepression_IsbL-0550_RLatLon0.09_PT050H.grib2 2026-04-29 14:59 359K
20260429T12Z_MSC_RDPS_DewPointDepression_IsbL-0600_RLatLon0.09_PT050H.grib2 2026-04-29 14:59 371K
20260429T12Z_MSC_RDPS_DewPointDepression_IsbL-0650_RLatLon0.09_PT050H.grib2 2026-04-29 14:59 374K
20260429T12Z_MSC_RDPS_DewPointDepression_IsbL-0700_RLatLon0.09_PT050H.grib2 2026-04-29 14:59 380K
20260429T12Z_MSC_RDPS_DewPointDepression_IsbL-0750_RLatLon0.09_PT050H.grib2 2026-04-29 14:59 398K
20260429T12Z_MSC_RDPS_DewPointDepression_IsbL-0800_RLatLon0.09_PT050H.grib2 2026-04-29 14:59 434K
20260429T12Z_MSC_RDPS_DewPointDepression_IsbL-0850_RLatLon0.09_PT050H.grib2 2026-04-29 14:59 467K
20260429T12Z_MSC_RDPS_DewPointDepression_IsbL-0875_RLatLon0.09_PT050H.grib2 2026-04-29 14:59 471K
20260429T12Z_MSC_RDPS_DewPointDepression_IsbL-0900_RLatLon0.09_PT050H.grib2 2026-04-29 14:59 463K
20260429T12Z_MSC_RDPS_DewPointDepression_IsbL-0925_RLatLon0.09_PT050H.grib2 2026-04-29 14:59 450K
20260429T12Z_MSC_RDPS_DewPointDepression_IsbL-0950_RLatLon0.09_PT050H.grib2 2026-04-29 14:59 445K
20260429T12Z_MSC_RDPS_DewPointDepression_IsbL-0970_RLatLon0.09_PT050H.grib2 2026-04-29 14:59 438K
20260429T12Z_MSC_RDPS_DewPointDepression_IsbL-0985_RLatLon0.09_PT050H.grib2 2026-04-29 14:59 434K
20260429T12Z_MSC_RDPS_DewPointDepression_IsbL-1000_RLatLon0.09_PT050H.grib2 2026-04-29 14:59 429K
20260429T12Z_MSC_RDPS_DewPointDepression_IsbL-1015_RLatLon0.09_PT050H.grib2 2026-04-29 14:59 421K
20260429T12Z_MSC_RDPS_DewPoint_AGL-2m_RLatLon0.09_PT050H.grib2 2026-04-29 14:59 398K
20260429T12Z_MSC_RDPS_DownwardLongwaveRadiationFlux-Accum_Sfc_RLatLon0.09_PT050H.grib2 2026-04-29 14:59 371K
20260429T12Z_MSC_RDPS_DownwardShortwaveRadiationFlux-Accum_NTAtm_RLatLon0.09_PT050H.grib2 2026-04-29 14:59 128K
20260429T12Z_MSC_RDPS_DownwardShortwaveRadiationFlux-Accum_Sfc_RLatLon0.09_PT050H.grib2 2026-04-29 14:59 559K
20260429T12Z_MSC_RDPS_FreezingRain-Accum1h_Sfc_RLatLon0.09_PT050H.grib2 2026-04-29 14:59 31K
20260429T12Z_MSC_RDPS_FreezingRain-Accum_Sfc_RLatLon0.09_PT050H.grib2 2026-04-29 14:59 178K
20260429T12Z_MSC_RDPS_GeopotentialHeight_IsbL-0001_RLatLon0.09_PT050H.grib2 2026-04-29 14:59 315K
20260429T12Z_MSC_RDPS_GeopotentialHeight_IsbL-0005_RLatLon0.09_PT050H.grib2 2026-04-29 14:59 302K
20260429T12Z_MSC_RDPS_GeopotentialHeight_IsbL-0010_RLatLon0.09_PT050H.grib2 2026-04-29 14:59 303K
20260429T12Z_MSC_RDPS_GeopotentialHeight_IsbL-0020_RLatLon0.09_PT050H.grib2 2026-04-29 14:59 302K
20260429T12Z_MSC_RDPS_GeopotentialHeight_IsbL-0030_RLatLon0.09_PT050H.grib2 2026-04-29 14:59 303K
20260429T12Z_MSC_RDPS_GeopotentialHeight_IsbL-0050_RLatLon0.09_PT050H.grib2 2026-04-29 14:59 306K
20260429T12Z_MSC_RDPS_GeopotentialHeight_IsbL-0100_RLatLon0.09_PT050H.grib2 2026-04-29 14:59 282K
20260429T12Z_MSC_RDPS_GeopotentialHeight_IsbL-0150_RLatLon0.09_PT050H.grib2 2026-04-29 14:59 225K
20260429T12Z_MSC_RDPS_GeopotentialHeight_IsbL-0175_RLatLon0.09_PT050H.grib2 2026-04-29 14:59 229K
20260429T12Z_MSC_RDPS_GeopotentialHeight_IsbL-0200_RLatLon0.09_PT050H.grib2 2026-04-29 14:59 262K
20260429T12Z_MSC_RDPS_GeopotentialHeight_IsbL-0225_RLatLon0.09_PT050H.grib2 2026-04-29 14:59 265K
20260429T12Z_MSC_RDPS_GeopotentialHeight_IsbL-0250_RLatLon0.09_PT050H.grib2 2026-04-29 14:59 265K
20260429T12Z_MSC_RDPS_GeopotentialHeight_IsbL-0275_RLatLon0.09_PT050H.grib2 2026-04-29 14:59 264K
20260429T12Z_MSC_RDPS_GeopotentialHeight_IsbL-0300_RLatLon0.09_PT050H.grib2 2026-04-29 14:59 233K
20260429T12Z_MSC_RDPS_GeopotentialHeight_IsbL-0350_RLatLon0.09_PT050H.grib2 2026-04-29 14:59 229K
20260429T12Z_MSC_RDPS_GeopotentialHeight_IsbL-0400_RLatLon0.09_PT050H.grib2 2026-04-29 14:59 227K
20260429T12Z_MSC_RDPS_GeopotentialHeight_IsbL-0450_RLatLon0.09_PT050H.grib2 2026-04-29 14:59 294K
20260429T12Z_MSC_RDPS_GeopotentialHeight_IsbL-0500_RLatLon0.09_PT050H.grib2 2026-04-29 14:59 290K
20260429T12Z_MSC_RDPS_GeopotentialHeight_IsbL-0550_RLatLon0.09_PT050H.grib2 2026-04-29 14:59 286K
20260429T12Z_MSC_RDPS_GeopotentialHeight_IsbL-0600_RLatLon0.09_PT050H.grib2 2026-04-29 14:59 281K
20260429T12Z_MSC_RDPS_GeopotentialHeight_IsbL-0650_RLatLon0.09_PT050H.grib2 2026-04-29 14:59 253K
20260429T12Z_MSC_RDPS_GeopotentialHeight_IsbL-0700_RLatLon0.09_PT050H.grib2 2026-04-29 14:59 333K
20260429T12Z_MSC_RDPS_GeopotentialHeight_IsbL-0750_RLatLon0.09_PT050H.grib2 2026-04-29 14:59 334K
20260429T12Z_MSC_RDPS_GeopotentialHeight_IsbL-0800_RLatLon0.09_PT050H.grib2 2026-04-29 14:59 342K
20260429T12Z_MSC_RDPS_GeopotentialHeight_IsbL-0850_RLatLon0.09_PT050H.grib2 2026-04-29 14:59 353K
20260429T12Z_MSC_RDPS_GeopotentialHeight_IsbL-0875_RLatLon0.09_PT050H.grib2 2026-04-29 14:59 354K
20260429T12Z_MSC_RDPS_GeopotentialHeight_IsbL-0900_RLatLon0.09_PT050H.grib2 2026-04-29 14:59 360K
20260429T12Z_MSC_RDPS_GeopotentialHeight_IsbL-0925_RLatLon0.09_PT050H.grib2 2026-04-29 14:59 362K
20260429T12Z_MSC_RDPS_GeopotentialHeight_IsbL-0950_RLatLon0.09_PT050H.grib2 2026-04-29 14:59 367K
20260429T12Z_MSC_RDPS_GeopotentialHeight_IsbL-0970_RLatLon0.09_PT050H.grib2 2026-04-29 14:59 372K
20260429T12Z_MSC_RDPS_GeopotentialHeight_IsbL-0985_RLatLon0.09_PT050H.grib2 2026-04-29 14:59 382K
20260429T12Z_MSC_RDPS_GeopotentialHeight_IsbL-1000_RLatLon0.09_PT050H.grib2 2026-04-29 14:59 394K
20260429T12Z_MSC_RDPS_GeopotentialHeight_IsbL-1015_RLatLon0.09_PT050H.grib2 2026-04-29 14:59 411K
20260429T12Z_MSC_RDPS_Humidex_Sfc_RLatLon0.09_PT050H.grib2 2026-04-29 14:59 2.4M
20260429T12Z_MSC_RDPS_IcePellets-Accum1h_Sfc_RLatLon0.09_PT050H.grib2 2026-04-29 14:59 6.8K
20260429T12Z_MSC_RDPS_IcePellets-Accum_Sfc_RLatLon0.09_PT050H.grib2 2026-04-29 14:59 21K
20260429T12Z_MSC_RDPS_KIndex_Sfc_RLatLon0.09_PT050H.grib2 2026-04-29 14:59 2.5M
20260429T12Z_MSC_RDPS_LatentHeatNetFlux_Sfc_RLatLon0.09_PT050H.grib2 2026-04-29 14:59 457K
20260429T12Z_MSC_RDPS_LiftedIndex-MU-VT_IsbL-0500_RLatLon0.09_PT050H.grib2 2026-04-29 14:59 2.4M
20260429T12Z_MSC_RDPS_NetLongwaveRadiationFlux-Accum_Sfc_RLatLon0.09_PT050H.grib2 2026-04-29 14:59 543K
20260429T12Z_MSC_RDPS_NetShortwaveRadiationFlux-Accum_Sfc_RLatLon0.09_PT050H.grib2 2026-04-29 14:59 560K
20260429T12Z_MSC_RDPS_PlanetaryBoundaryLayerHeight_Sfc_RLatLon0.09_PT050H.grib2 2026-04-29 14:59 1.1M
20260429T12Z_MSC_RDPS_Precip-Accum1h_Sfc_RLatLon0.09_PT050H.grib2 2026-04-29 14:59 1.2M
20260429T12Z_MSC_RDPS_Precip-Accum_Sfc_RLatLon0.09_PT050H.grib2 2026-04-29 14:59 2.0M
20260429T12Z_MSC_RDPS_PrecipRate_Sfc_RLatLon0.09_PT050H.grib2 2026-04-29 14:59 159K
20260429T12Z_MSC_RDPS_PrecipType-Instant_Sfc_RLatLon0.09_PT050H.grib2 2026-04-29 14:59 553K
20260429T12Z_MSC_RDPS_Pressure-Trend3h_Sfc_RLatLon0.09_PT050H.grib2 2026-04-29 14:59 1.2M
20260429T12Z_MSC_RDPS_Pressure_MSL_RLatLon0.09_PT050H.grib2 2026-04-29 14:59 325K
20260429T12Z_MSC_RDPS_Pressure_PVU-1.5_RLatLon0.09_PT050H.grib2 2026-04-29 14:59 2.5M
20260429T12Z_MSC_RDPS_Pressure_PVU-1_RLatLon0.09_PT050H.grib2 2026-04-29 14:59 2.4M
20260429T12Z_MSC_RDPS_Pressure_PVU-2_RLatLon0.09_PT050H.grib2 2026-04-29 14:59 2.4M
20260429T12Z_MSC_RDPS_Pressure_Sfc_RLatLon0.09_PT050H.grib2 2026-04-29 14:59 499K
20260429T12Z_MSC_RDPS_RadiativeTemp_Sfc_RLatLon0.09_PT050H.grib2 2026-04-29 14:59 315K
20260429T12Z_MSC_RDPS_Rain-Accum1h_Sfc_RLatLon0.09_PT050H.grib2 2026-04-29 14:59 518K
20260429T12Z_MSC_RDPS_Rain-Accum_Sfc_RLatLon0.09_PT050H.grib2 2026-04-29 14:59 1.6M
20260429T12Z_MSC_RDPS_RelativeHumidity_AGL-2m_RLatLon0.09_PT050H.grib2 2026-04-29 14:59 1.0M
20260429T12Z_MSC_RDPS_RelativeHumidity_IsbL-0010_RLatLon0.09_PT050H.grib2 2026-04-29 14:59 637K
20260429T12Z_MSC_RDPS_RelativeHumidity_IsbL-0020_RLatLon0.09_PT050H.grib2 2026-04-29 14:59 679K
20260429T12Z_MSC_RDPS_RelativeHumidity_IsbL-0030_RLatLon0.09_PT050H.grib2 2026-04-29 14:59 605K
20260429T12Z_MSC_RDPS_RelativeHumidity_IsbL-0050_RLatLon0.09_PT050H.grib2 2026-04-29 14:59 314K
20260429T12Z_MSC_RDPS_RelativeHumidity_IsbL-0100_RLatLon0.09_PT050H.grib2 2026-04-29 14:59 278K
20260429T12Z_MSC_RDPS_RelativeHumidity_IsbL-0150_RLatLon0.09_PT050H.grib2 2026-04-29 14:59 395K
20260429T12Z_MSC_RDPS_RelativeHumidity_IsbL-0175_RLatLon0.09_PT050H.grib2 2026-04-29 14:59 461K
20260429T12Z_MSC_RDPS_RelativeHumidity_IsbL-0200_RLatLon0.09_PT050H.grib2 2026-04-29 14:59 547K
20260429T12Z_MSC_RDPS_RelativeHumidity_IsbL-0225_RLatLon0.09_PT050H.grib2 2026-04-29 14:59 617K
20260429T12Z_MSC_RDPS_RelativeHumidity_IsbL-0250_RLatLon0.09_PT050H.grib2 2026-04-29 14:59 682K
20260429T12Z_MSC_RDPS_RelativeHumidity_IsbL-0275_RLatLon0.09_PT050H.grib2 2026-04-29 14:59 705K
20260429T12Z_MSC_RDPS_RelativeHumidity_IsbL-0300_RLatLon0.09_PT050H.grib2 2026-04-29 14:59 751K
20260429T12Z_MSC_RDPS_RelativeHumidity_IsbL-0350_RLatLon0.09_PT050H.grib2 2026-04-29 14:59 771K
20260429T12Z_MSC_RDPS_RelativeHumidity_IsbL-0400_RLatLon0.09_PT050H.grib2 2026-04-29 14:59 785K
20260429T12Z_MSC_RDPS_RelativeHumidity_IsbL-0450_RLatLon0.09_PT050H.grib2 2026-04-29 14:59 790K
20260429T12Z_MSC_RDPS_RelativeHumidity_IsbL-0500_RLatLon0.09_PT050H.grib2 2026-04-29 14:59 796K
20260429T12Z_MSC_RDPS_RelativeHumidity_IsbL-0550_RLatLon0.09_PT050H.grib2 2026-04-29 14:59 814K
20260429T12Z_MSC_RDPS_RelativeHumidity_IsbL-0600_RLatLon0.09_PT050H.grib2 2026-04-29 14:59 837K
20260429T12Z_MSC_RDPS_RelativeHumidity_IsbL-0650_RLatLon0.09_PT050H.grib2 2026-04-29 14:59 847K
20260429T12Z_MSC_RDPS_RelativeHumidity_IsbL-0700_RLatLon0.09_PT050H.grib2 2026-04-29 14:59 867K
20260429T12Z_MSC_RDPS_RelativeHumidity_IsbL-0750_RLatLon0.09_PT050H.grib2 2026-04-29 14:59 914K
20260429T12Z_MSC_RDPS_RelativeHumidity_IsbL-0800_RLatLon0.09_PT050H.grib2 2026-04-29 14:59 1.0M
20260429T12Z_MSC_RDPS_RelativeHumidity_IsbL-0850_RLatLon0.09_PT050H.grib2 2026-04-29 14:59 1.0M
20260429T12Z_MSC_RDPS_RelativeHumidity_IsbL-0875_RLatLon0.09_PT050H.grib2 2026-04-29 14:59 1.1M
20260429T12Z_MSC_RDPS_RelativeHumidity_IsbL-0900_RLatLon0.09_PT050H.grib2 2026-04-29 14:59 1.1M
20260429T12Z_MSC_RDPS_RelativeHumidity_IsbL-0925_RLatLon0.09_PT050H.grib2 2026-04-29 14:59 1.1M
20260429T12Z_MSC_RDPS_RelativeHumidity_IsbL-0950_RLatLon0.09_PT050H.grib2 2026-04-29 14:59 1.1M
20260429T12Z_MSC_RDPS_RelativeHumidity_IsbL-0970_RLatLon0.09_PT050H.grib2 2026-04-29 14:59 1.1M
20260429T12Z_MSC_RDPS_RelativeHumidity_IsbL-0985_RLatLon0.09_PT050H.grib2 2026-04-29 14:59 1.0M
20260429T12Z_MSC_RDPS_RelativeHumidity_IsbL-1000_RLatLon0.09_PT050H.grib2 2026-04-29 14:59 1.0M
20260429T12Z_MSC_RDPS_RelativeHumidity_IsbL-1015_RLatLon0.09_PT050H.grib2 2026-04-29 14:59 1.0M
20260429T12Z_MSC_RDPS_Runoff-Accum_Sfc_RLatLon0.09_PT050H.grib2 2026-04-29 14:59 52K
20260429T12Z_MSC_RDPS_SWEATIndex_Sfc_RLatLon0.09_PT050H.grib2 2026-04-29 14:59 2.4M
20260429T12Z_MSC_RDPS_SeeingIndex_EAtm_RLatLon0.09_PT050H.grib2 2026-04-29 14:59 1.0M
20260429T12Z_MSC_RDPS_SensibleHeatNetFlux_Sfc_RLatLon0.09_PT050H.grib2 2026-04-29 14:59 335K
20260429T12Z_MSC_RDPS_ShowalterIndex_IsbL-0500_RLatLon0.09_PT050H.grib2 2026-04-29 14:59 2.6M
20260429T12Z_MSC_RDPS_SkyTransparencyIndex_EAtm_RLatLon0.09_PT050H.grib2 2026-04-29 14:59 711K
20260429T12Z_MSC_RDPS_Snow-Accum1h_Sfc_RLatLon0.09_PT050H.grib2 2026-04-29 14:59 493K
20260429T12Z_MSC_RDPS_Snow-Accum_Sfc_RLatLon0.09_PT050H.grib2 2026-04-29 14:59 784K
20260429T12Z_MSC_RDPS_SnowDensity_Sfc_RLatLon0.09_PT050H.grib2 2026-04-29 14:59 178K
20260429T12Z_MSC_RDPS_SnowDepth_Sfc_RLatLon0.09_PT050H.grib2 2026-04-29 14:59 676K
20260429T12Z_MSC_RDPS_SoilTemp_DBS-0to10cm_RLatLon0.09_PT050H.grib2 2026-04-29 14:59 236K
20260429T12Z_MSC_RDPS_SoilTemp_Sfc_RLatLon0.09_PT050H.grib2 2026-04-29 14:59 281K
20260429T12Z_MSC_RDPS_SoilVolumetricIceContent_Sfc_RLatLon0.09_PT050H.grib2 2026-04-29 14:59 163K
20260429T12Z_MSC_RDPS_SoilVolumetricWaterContent_DBS-0to10cm_RLatLon0.09_PT050H.grib2 2026-04-29 14:59 269K
20260429T12Z_MSC_RDPS_SoilVolumetricWaterContent_DBS-0to1cm_RLatLon0.09_PT050H.grib2 2026-04-29 14:59 339K
20260429T12Z_MSC_RDPS_SpecificHumidity_AGL-120m_RLatLon0.09_PT050H.grib2 2026-04-29 14:59 493K
20260429T12Z_MSC_RDPS_SpecificHumidity_AGL-2m_RLatLon0.09_PT050H.grib2 2026-04-29 14:59 661K
20260429T12Z_MSC_RDPS_SpecificHumidity_AGL-40m_RLatLon0.09_PT050H.grib2 2026-04-29 14:59 499K
20260429T12Z_MSC_RDPS_SpecificHumidity_AGL-80m_RLatLon0.09_PT050H.grib2 2026-04-29 14:59 495K
20260429T12Z_MSC_RDPS_SpecificHumidity_IsbL-0001_RLatLon0.09_PT050H.grib2 2026-04-29 14:59 362K
20260429T12Z_MSC_RDPS_SpecificHumidity_IsbL-0005_RLatLon0.09_PT050H.grib2 2026-04-29 14:59 363K
20260429T12Z_MSC_RDPS_SpecificHumidity_IsbL-0010_RLatLon0.09_PT050H.grib2 2026-04-29 14:59 395K
20260429T12Z_MSC_RDPS_SpecificHumidity_IsbL-0020_RLatLon0.09_PT050H.grib2 2026-04-29 14:59 385K
20260429T12Z_MSC_RDPS_SpecificHumidity_IsbL-0030_RLatLon0.09_PT050H.grib2 2026-04-29 14:59 368K
20260429T12Z_MSC_RDPS_SpecificHumidity_IsbL-0050_RLatLon0.09_PT050H.grib2 2026-04-29 14:59 480K
20260429T12Z_MSC_RDPS_SpecificHumidity_IsbL-0100_RLatLon0.09_PT050H.grib2 2026-04-29 14:59 534K
20260429T12Z_MSC_RDPS_SpecificHumidity_IsbL-0150_RLatLon0.09_PT050H.grib2 2026-04-29 14:59 441K
20260429T12Z_MSC_RDPS_SpecificHumidity_IsbL-0175_RLatLon0.09_PT050H.grib2 2026-04-29 14:59 418K
20260429T12Z_MSC_RDPS_SpecificHumidity_IsbL-0200_RLatLon0.09_PT050H.grib2 2026-04-29 14:59 438K
20260429T12Z_MSC_RDPS_SpecificHumidity_IsbL-0225_RLatLon0.09_PT050H.grib2 2026-04-29 14:59 443K
20260429T12Z_MSC_RDPS_SpecificHumidity_IsbL-0250_RLatLon0.09_PT050H.grib2 2026-04-29 14:59 546K
20260429T12Z_MSC_RDPS_SpecificHumidity_IsbL-0275_RLatLon0.09_PT050H.grib2 2026-04-29 14:59 461K
20260429T12Z_MSC_RDPS_SpecificHumidity_IsbL-0300_RLatLon0.09_PT050H.grib2 2026-04-29 14:59 562K
20260429T12Z_MSC_RDPS_SpecificHumidity_IsbL-0350_RLatLon0.09_PT050H.grib2 2026-04-29 14:59 557K
20260429T12Z_MSC_RDPS_SpecificHumidity_IsbL-0400_RLatLon0.09_PT050H.grib2 2026-04-29 14:59 512K
20260429T12Z_MSC_RDPS_SpecificHumidity_IsbL-0450_RLatLon0.09_PT050H.grib2 2026-04-29 14:59 564K
20260429T12Z_MSC_RDPS_SpecificHumidity_IsbL-0500_RLatLon0.09_PT050H.grib2 2026-04-29 14:59 500K
20260429T12Z_MSC_RDPS_SpecificHumidity_IsbL-0550_RLatLon0.09_PT050H.grib2 2026-04-29 14:59 573K
20260429T12Z_MSC_RDPS_SpecificHumidity_IsbL-0600_RLatLon0.09_PT050H.grib2 2026-04-29 14:59 626K
20260429T12Z_MSC_RDPS_SpecificHumidity_IsbL-0650_RLatLon0.09_PT050H.grib2 2026-04-29 14:59 541K
20260429T12Z_MSC_RDPS_SpecificHumidity_IsbL-0700_RLatLon0.09_PT050H.grib2 2026-04-29 14:59 581K
20260429T12Z_MSC_RDPS_SpecificHumidity_IsbL-0750_RLatLon0.09_PT050H.grib2 2026-04-29 14:59 634K
20260429T12Z_MSC_RDPS_SpecificHumidity_IsbL-0800_RLatLon0.09_PT050H.grib2 2026-04-29 14:59 707K
20260429T12Z_MSC_RDPS_SpecificHumidity_IsbL-0850_RLatLon0.09_PT050H.grib2 2026-04-29 14:59 796K
20260429T12Z_MSC_RDPS_SpecificHumidity_IsbL-0875_RLatLon0.09_PT050H.grib2 2026-04-29 14:59 824K
20260429T12Z_MSC_RDPS_SpecificHumidity_IsbL-0900_RLatLon0.09_PT050H.grib2 2026-04-29 14:59 839K
20260429T12Z_MSC_RDPS_SpecificHumidity_IsbL-0925_RLatLon0.09_PT050H.grib2 2026-04-29 14:59 843K
20260429T12Z_MSC_RDPS_SpecificHumidity_IsbL-0950_RLatLon0.09_PT050H.grib2 2026-04-29 14:59 846K
20260429T12Z_MSC_RDPS_SpecificHumidity_IsbL-0970_RLatLon0.09_PT050H.grib2 2026-04-29 14:59 697K
20260429T12Z_MSC_RDPS_SpecificHumidity_IsbL-0985_RLatLon0.09_PT050H.grib2 2026-04-29 14:59 689K
20260429T12Z_MSC_RDPS_SpecificHumidity_IsbL-1000_RLatLon0.09_PT050H.grib2 2026-04-29 14:59 681K
20260429T12Z_MSC_RDPS_SpecificHumidity_IsbL-1015_RLatLon0.09_PT050H.grib2 2026-04-29 14:59 670K
20260429T12Z_MSC_RDPS_SpecificHumidity_Sfc_RLatLon0.09_PT050H.grib2 2026-04-29 14:59 308K
20260429T12Z_MSC_RDPS_StormRelativeHelicity_EtaL-10000_RLatLon0.09_PT050H.grib2 2026-04-29 14:59 1.1M
20260429T12Z_MSC_RDPS_StormSeverityIndex_EtaL-10000_RLatLon0.09_PT050H.grib2 2026-04-29 14:59 1.1M
20260429T12Z_MSC_RDPS_Thickness_IsbL-0850to0700_RLatLon0.09_PT050H.grib2 2026-04-29 14:59 175K
20260429T12Z_MSC_RDPS_Thickness_IsbL-1000to0500_RLatLon0.09_PT050H.grib2 2026-04-29 14:59 196K
20260429T12Z_MSC_RDPS_Thickness_IsbL-1000to0850_RLatLon0.09_PT050H.grib2 2026-04-29 14:59 262K
20260429T12Z_MSC_RDPS_TotalCloudCover_Sfc_RLatLon0.09_PT050H.grib2 2026-04-29 14:59 653K
20260429T12Z_MSC_RDPS_TotalTotalsIndex_Sfc_RLatLon0.09_PT050H.grib2 2026-04-29 14:59 2.4M
20260429T12Z_MSC_RDPS_UVIndex-ClearSky_Sfc_RLatLon0.09_PT050H.grib2 2026-04-29 14:59 208K
20260429T12Z_MSC_RDPS_UVIndex_Sfc_RLatLon0.09_PT050H.grib2 2026-04-29 14:59 443K
20260429T12Z_MSC_RDPS_UpwardLongwaveRadiationFlux_NTAtm_RLatLon0.09_PT050H.grib2 2026-04-29 14:59 478K
20260429T12Z_MSC_RDPS_UpwardShortwaveRadiationFlux_NTAtm_RLatLon0.09_PT050H.grib2 2026-04-29 14:59 398K
20260429T12Z_MSC_RDPS_VerticalVelocity_IsbL-0250_RLatLon0.09_PT050H.grib2 2026-04-29 14:59 545K
20260429T12Z_MSC_RDPS_VerticalVelocity_IsbL-0500_RLatLon0.09_PT050H.grib2 2026-04-29 14:59 537K
20260429T12Z_MSC_RDPS_VerticalVelocity_IsbL-0700_RLatLon0.09_PT050H.grib2 2026-04-29 14:59 609K
20260429T12Z_MSC_RDPS_VerticalVelocity_IsbL-0850_RLatLon0.09_PT050H.grib2 2026-04-29 14:59 698K
20260429T12Z_MSC_RDPS_VerticalWindShear_EtaL-6500_RLatLon0.09_PT050H.grib2 2026-04-29 14:59 1.2M
20260429T12Z_MSC_RDPS_WindChill_Sfc_RLatLon0.09_PT050H.grib2 2026-04-29 14:59 1.2M
20260429T12Z_MSC_RDPS_WindDir_AGL-10m_RLatLon0.09_PT050H.grib2 2026-04-29 14:59 967K
20260429T12Z_MSC_RDPS_WindDir_AGL-120m_RLatLon0.09_PT050H.grib2 2026-04-29 14:59 608K
20260429T12Z_MSC_RDPS_WindDir_AGL-40m_RLatLon0.09_PT050H.grib2 2026-04-29 14:59 633K
20260429T12Z_MSC_RDPS_WindDir_AGL-80m_RLatLon0.09_PT050H.grib2 2026-04-29 14:59 617K
20260429T12Z_MSC_RDPS_WindDir_IsbL-0001_RLatLon0.09_PT050H.grib2 2026-04-29 14:59 308K
20260429T12Z_MSC_RDPS_WindDir_IsbL-0005_RLatLon0.09_PT050H.grib2 2026-04-29 14:59 376K
20260429T12Z_MSC_RDPS_WindDir_IsbL-0010_RLatLon0.09_PT050H.grib2 2026-04-29 14:59 376K
20260429T12Z_MSC_RDPS_WindDir_IsbL-0020_RLatLon0.09_PT050H.grib2 2026-04-29 14:59 419K
20260429T12Z_MSC_RDPS_WindDir_IsbL-0030_RLatLon0.09_PT050H.grib2 2026-04-29 14:59 419K
20260429T12Z_MSC_RDPS_WindDir_IsbL-0050_RLatLon0.09_PT050H.grib2 2026-04-29 14:59 423K
20260429T12Z_MSC_RDPS_WindDir_IsbL-0100_RLatLon0.09_PT050H.grib2 2026-04-29 14:59 418K
20260429T12Z_MSC_RDPS_WindDir_IsbL-0150_RLatLon0.09_PT050H.grib2 2026-04-29 14:59 420K
20260429T12Z_MSC_RDPS_WindDir_IsbL-0175_RLatLon0.09_PT050H.grib2 2026-04-29 14:59 442K
20260429T12Z_MSC_RDPS_WindDir_IsbL-0200_RLatLon0.09_PT050H.grib2 2026-04-29 14:59 451K
20260429T12Z_MSC_RDPS_WindDir_IsbL-0225_RLatLon0.09_PT050H.grib2 2026-04-29 14:59 453K
20260429T12Z_MSC_RDPS_WindDir_IsbL-0250_RLatLon0.09_PT050H.grib2 2026-04-29 14:59 451K
20260429T12Z_MSC_RDPS_WindDir_IsbL-0275_RLatLon0.09_PT050H.grib2 2026-04-29 14:59 472K
20260429T12Z_MSC_RDPS_WindDir_IsbL-0300_RLatLon0.09_PT050H.grib2 2026-04-29 14:59 469K
20260429T12Z_MSC_RDPS_WindDir_IsbL-0350_RLatLon0.09_PT050H.grib2 2026-04-29 14:59 488K
20260429T12Z_MSC_RDPS_WindDir_IsbL-0400_RLatLon0.09_PT050H.grib2 2026-04-29 14:59 502K
20260429T12Z_MSC_RDPS_WindDir_IsbL-0450_RLatLon0.09_PT050H.grib2 2026-04-29 14:59 514K
20260429T12Z_MSC_RDPS_WindDir_IsbL-0500_RLatLon0.09_PT050H.grib2 2026-04-29 14:59 532K
20260429T12Z_MSC_RDPS_WindDir_IsbL-0550_RLatLon0.09_PT050H.grib2 2026-04-29 14:59 549K
20260429T12Z_MSC_RDPS_WindDir_IsbL-0600_RLatLon0.09_PT050H.grib2 2026-04-29 14:59 574K
20260429T12Z_MSC_RDPS_WindDir_IsbL-0650_RLatLon0.09_PT050H.grib2 2026-04-29 14:59 615K
20260429T12Z_MSC_RDPS_WindDir_IsbL-0700_RLatLon0.09_PT050H.grib2 2026-04-29 14:59 663K
20260429T12Z_MSC_RDPS_WindDir_IsbL-0750_RLatLon0.09_PT050H.grib2 2026-04-29 14:59 701K
20260429T12Z_MSC_RDPS_WindDir_IsbL-0800_RLatLon0.09_PT050H.grib2 2026-04-29 14:59 765K
20260429T12Z_MSC_RDPS_WindDir_IsbL-0850_RLatLon0.09_PT050H.grib2 2026-04-29 14:59 844K
20260429T12Z_MSC_RDPS_WindDir_IsbL-0875_RLatLon0.09_PT050H.grib2 2026-04-29 14:59 876K
20260429T12Z_MSC_RDPS_WindDir_IsbL-0900_RLatLon0.09_PT050H.grib2 2026-04-29 14:59 894K
20260429T12Z_MSC_RDPS_WindDir_IsbL-0925_RLatLon0.09_PT050H.grib2 2026-04-29 14:59 906K
20260429T12Z_MSC_RDPS_WindDir_IsbL-0950_RLatLon0.09_PT050H.grib2 2026-04-29 14:59 909K
20260429T12Z_MSC_RDPS_WindDir_IsbL-0970_RLatLon0.09_PT050H.grib2 2026-04-29 14:59 917K
20260429T12Z_MSC_RDPS_WindDir_IsbL-0985_RLatLon0.09_PT050H.grib2 2026-04-29 14:59 927K
20260429T12Z_MSC_RDPS_WindDir_IsbL-1000_RLatLon0.09_PT050H.grib2 2026-04-29 14:59 940K
20260429T12Z_MSC_RDPS_WindDir_IsbL-1015_RLatLon0.09_PT050H.grib2 2026-04-29 14:59 957K
20260429T12Z_MSC_RDPS_WindGust-Max_AGL-10m_RLatLon0.09_PT050H.grib2 2026-04-29 14:59 1.0M
20260429T12Z_MSC_RDPS_WindGust-Min_AGL-10m_RLatLon0.09_PT050H.grib2 2026-04-29 14:59 1.0M
20260429T12Z_MSC_RDPS_WindGust_AGL-10m_RLatLon0.09_PT050H.grib2 2026-04-29 14:59 1.0M
20260429T12Z_MSC_RDPS_WindSpeed_AGL-10m_RLatLon0.09_PT050H.grib2 2026-04-29 14:59 838K
20260429T12Z_MSC_RDPS_WindSpeed_AGL-120m_RLatLon0.09_PT050H.grib2 2026-04-29 14:59 541K
20260429T12Z_MSC_RDPS_WindSpeed_AGL-40m_RLatLon0.09_PT050H.grib2 2026-04-29 14:59 538K
20260429T12Z_MSC_RDPS_WindSpeed_AGL-80m_RLatLon0.09_PT050H.grib2 2026-04-29 14:59 539K
20260429T12Z_MSC_RDPS_WindSpeed_IsbL-0001_RLatLon0.09_PT050H.grib2 2026-04-29 14:59 253K
20260429T12Z_MSC_RDPS_WindSpeed_IsbL-0005_RLatLon0.09_PT050H.grib2 2026-04-29 14:59 382K
20260429T12Z_MSC_RDPS_WindSpeed_IsbL-0010_RLatLon0.09_PT050H.grib2 2026-04-29 14:59 307K
20260429T12Z_MSC_RDPS_WindSpeed_IsbL-0020_RLatLon0.09_PT050H.grib2 2026-04-29 14:59 326K
20260429T12Z_MSC_RDPS_WindSpeed_IsbL-0030_RLatLon0.09_PT050H.grib2 2026-04-29 14:59 419K
20260429T12Z_MSC_RDPS_WindSpeed_IsbL-0050_RLatLon0.09_PT050H.grib2 2026-04-29 14:59 350K
20260429T12Z_MSC_RDPS_WindSpeed_IsbL-0100_RLatLon0.09_PT050H.grib2 2026-04-29 14:59 474K
20260429T12Z_MSC_RDPS_WindSpeed_IsbL-0150_RLatLon0.09_PT050H.grib2 2026-04-29 14:59 376K
20260429T12Z_MSC_RDPS_WindSpeed_IsbL-0175_RLatLon0.09_PT050H.grib2 2026-04-29 14:59 423K
20260429T12Z_MSC_RDPS_WindSpeed_IsbL-0200_RLatLon0.09_PT050H.grib2 2026-04-29 14:59 440K
20260429T12Z_MSC_RDPS_WindSpeed_IsbL-0225_RLatLon0.09_PT050H.grib2 2026-04-29 14:59 446K
20260429T12Z_MSC_RDPS_WindSpeed_IsbL-0250_RLatLon0.09_PT050H.grib2 2026-04-29 14:59 448K
20260429T12Z_MSC_RDPS_WindSpeed_IsbL-0275_RLatLon0.09_PT050H.grib2 2026-04-29 14:59 463K
20260429T12Z_MSC_RDPS_WindSpeed_IsbL-0300_RLatLon0.09_PT050H.grib2 2026-04-29 14:59 460K
20260429T12Z_MSC_RDPS_WindSpeed_IsbL-0350_RLatLon0.09_PT050H.grib2 2026-04-29 14:59 470K
20260429T12Z_MSC_RDPS_WindSpeed_IsbL-0400_RLatLon0.09_PT050H.grib2 2026-04-29 14:59 455K
20260429T12Z_MSC_RDPS_WindSpeed_IsbL-0450_RLatLon0.09_PT050H.grib2 2026-04-29 14:59 455K
20260429T12Z_MSC_RDPS_WindSpeed_IsbL-0500_RLatLon0.09_PT050H.grib2 2026-04-29 14:59 456K
20260429T12Z_MSC_RDPS_WindSpeed_IsbL-0550_RLatLon0.09_PT050H.grib2 2026-04-29 14:59 456K
20260429T12Z_MSC_RDPS_WindSpeed_IsbL-0600_RLatLon0.09_PT050H.grib2 2026-04-29 14:59 582K
20260429T12Z_MSC_RDPS_WindSpeed_IsbL-0650_RLatLon0.09_PT050H.grib2 2026-04-29 14:59 603K
20260429T12Z_MSC_RDPS_WindSpeed_IsbL-0700_RLatLon0.09_PT050H.grib2 2026-04-29 14:59 628K
20260429T12Z_MSC_RDPS_WindSpeed_IsbL-0750_RLatLon0.09_PT050H.grib2 2026-04-29 14:59 699K
20260429T12Z_MSC_RDPS_WindSpeed_IsbL-0800_RLatLon0.09_PT050H.grib2 2026-04-29 14:59 746K
20260429T12Z_MSC_RDPS_WindSpeed_IsbL-0850_RLatLon0.09_PT050H.grib2 2026-04-29 14:59 808K
20260429T12Z_MSC_RDPS_WindSpeed_IsbL-0875_RLatLon0.09_PT050H.grib2 2026-04-29 14:59 830K
20260429T12Z_MSC_RDPS_WindSpeed_IsbL-0900_RLatLon0.09_PT050H.grib2 2026-04-29 14:59 847K
20260429T12Z_MSC_RDPS_WindSpeed_IsbL-0925_RLatLon0.09_PT050H.grib2 2026-04-29 14:59 860K
20260429T12Z_MSC_RDPS_WindSpeed_IsbL-0950_RLatLon0.09_PT050H.grib2 2026-04-29 14:59 858K
20260429T12Z_MSC_RDPS_WindSpeed_IsbL-0970_RLatLon0.09_PT050H.grib2 2026-04-29 14:59 857K
20260429T12Z_MSC_RDPS_WindSpeed_IsbL-0985_RLatLon0.09_PT050H.grib2 2026-04-29 14:59 852K
20260429T12Z_MSC_RDPS_WindSpeed_IsbL-1000_RLatLon0.09_PT050H.grib2 2026-04-29 14:59 847K
20260429T12Z_MSC_RDPS_WindSpeed_IsbL-1015_RLatLon0.09_PT050H.grib2 2026-04-29 14:59 838K
20260429T12Z_MSC_RDPS_WindU_AGL-10m_RLatLon0.09_PT050H.grib2 2026-04-29 14:59 430K
20260429T12Z_MSC_RDPS_WindU_AGL-120m_RLatLon0.09_PT050H.grib2 2026-04-29 14:59 536K
20260429T12Z_MSC_RDPS_WindU_AGL-40m_RLatLon0.09_PT050H.grib2 2026-04-29 14:59 536K
20260429T12Z_MSC_RDPS_WindU_AGL-80m_RLatLon0.09_PT050H.grib2 2026-04-29 14:59 536K
20260429T12Z_MSC_RDPS_WindU_IsbL-0001_RLatLon0.09_PT050H.grib2 2026-04-29 14:59 244K
20260429T12Z_MSC_RDPS_WindU_IsbL-0005_RLatLon0.09_PT050H.grib2 2026-04-29 14:59 287K
20260429T12Z_MSC_RDPS_WindU_IsbL-0010_RLatLon0.09_PT050H.grib2 2026-04-29 14:59 298K
20260429T12Z_MSC_RDPS_WindU_IsbL-0020_RLatLon0.09_PT050H.grib2 2026-04-29 14:59 316K
20260429T12Z_MSC_RDPS_WindU_IsbL-0030_RLatLon0.09_PT050H.grib2 2026-04-29 14:59 315K
20260429T12Z_MSC_RDPS_WindU_IsbL-0050_RLatLon0.09_PT050H.grib2 2026-04-29 14:59 344K
20260429T12Z_MSC_RDPS_WindU_IsbL-0100_RLatLon0.09_PT050H.grib2 2026-04-29 14:59 428K
20260429T12Z_MSC_RDPS_WindU_IsbL-0150_RLatLon0.09_PT050H.grib2 2026-04-29 14:59 391K
20260429T12Z_MSC_RDPS_WindU_IsbL-0175_RLatLon0.09_PT050H.grib2 2026-04-29 14:59 415K
20260429T12Z_MSC_RDPS_WindU_IsbL-0200_RLatLon0.09_PT050H.grib2 2026-04-29 14:59 335K
20260429T12Z_MSC_RDPS_WindU_IsbL-0225_RLatLon0.09_PT050H.grib2 2026-04-29 14:59 339K
20260429T12Z_MSC_RDPS_WindU_IsbL-0250_RLatLon0.09_PT050H.grib2 2026-04-29 14:59 339K
20260429T12Z_MSC_RDPS_WindU_IsbL-0275_RLatLon0.09_PT050H.grib2 2026-04-29 14:59 352K
20260429T12Z_MSC_RDPS_WindU_IsbL-0300_RLatLon0.09_PT050H.grib2 2026-04-29 14:59 348K
20260429T12Z_MSC_RDPS_WindU_IsbL-0350_RLatLon0.09_PT050H.grib2 2026-04-29 14:59 356K
20260429T12Z_MSC_RDPS_WindU_IsbL-0400_RLatLon0.09_PT050H.grib2 2026-04-29 14:59 359K
20260429T12Z_MSC_RDPS_WindU_IsbL-0450_RLatLon0.09_PT050H.grib2 2026-04-29 14:59 461K
20260429T12Z_MSC_RDPS_WindU_IsbL-0500_RLatLon0.09_PT050H.grib2 2026-04-29 14:59 463K
20260429T12Z_MSC_RDPS_WindU_IsbL-0550_RLatLon0.09_PT050H.grib2 2026-04-29 14:59 463K
20260429T12Z_MSC_RDPS_WindU_IsbL-0600_RLatLon0.09_PT050H.grib2 2026-04-29 14:59 472K
20260429T12Z_MSC_RDPS_WindU_IsbL-0650_RLatLon0.09_PT050H.grib2 2026-04-29 14:59 475K
20260429T12Z_MSC_RDPS_WindU_IsbL-0700_RLatLon0.09_PT050H.grib2 2026-04-29 14:59 497K
20260429T12Z_MSC_RDPS_WindU_IsbL-0750_RLatLon0.09_PT050H.grib2 2026-04-29 14:59 521K
20260429T12Z_MSC_RDPS_WindU_IsbL-0800_RLatLon0.09_PT050H.grib2 2026-04-29 14:59 562K
20260429T12Z_MSC_RDPS_WindU_IsbL-0850_RLatLon0.09_PT050H.grib2 2026-04-29 14:59 616K
20260429T12Z_MSC_RDPS_WindU_IsbL-0875_RLatLon0.09_PT050H.grib2 2026-04-29 14:59 635K
20260429T12Z_MSC_RDPS_WindU_IsbL-0900_RLatLon0.09_PT050H.grib2 2026-04-29 14:59 647K
20260429T12Z_MSC_RDPS_WindU_IsbL-0925_RLatLon0.09_PT050H.grib2 2026-04-29 14:59 656K
20260429T12Z_MSC_RDPS_WindU_IsbL-0950_RLatLon0.09_PT050H.grib2 2026-04-29 14:59 654K
20260429T12Z_MSC_RDPS_WindU_IsbL-0970_RLatLon0.09_PT050H.grib2 2026-04-29 14:59 652K
20260429T12Z_MSC_RDPS_WindU_IsbL-0985_RLatLon0.09_PT050H.grib2 2026-04-29 14:59 788K
20260429T12Z_MSC_RDPS_WindU_IsbL-1000_RLatLon0.09_PT050H.grib2 2026-04-29 14:59 786K
20260429T12Z_MSC_RDPS_WindU_IsbL-1015_RLatLon0.09_PT050H.grib2 2026-04-29 14:59 826K
20260429T12Z_MSC_RDPS_WindV_AGL-10m_RLatLon0.09_PT050H.grib2 2026-04-29 14:59 430K
20260429T12Z_MSC_RDPS_WindV_AGL-120m_RLatLon0.09_PT050H.grib2 2026-04-29 14:59 534K
20260429T12Z_MSC_RDPS_WindV_AGL-40m_RLatLon0.09_PT050H.grib2 2026-04-29 14:59 534K
20260429T12Z_MSC_RDPS_WindV_AGL-80m_RLatLon0.09_PT050H.grib2 2026-04-29 14:59 533K
20260429T12Z_MSC_RDPS_WindV_IsbL-0001_RLatLon0.09_PT050H.grib2 2026-04-29 14:59 245K
20260429T12Z_MSC_RDPS_WindV_IsbL-0005_RLatLon0.09_PT050H.grib2 2026-04-29 14:59 287K
20260429T12Z_MSC_RDPS_WindV_IsbL-0010_RLatLon0.09_PT050H.grib2 2026-04-29 14:59 301K
20260429T12Z_MSC_RDPS_WindV_IsbL-0020_RLatLon0.09_PT050H.grib2 2026-04-29 14:59 319K
20260429T12Z_MSC_RDPS_WindV_IsbL-0030_RLatLon0.09_PT050H.grib2 2026-04-29 14:59 317K
20260429T12Z_MSC_RDPS_WindV_IsbL-0050_RLatLon0.09_PT050H.grib2 2026-04-29 14:59 343K
20260429T12Z_MSC_RDPS_WindV_IsbL-0100_RLatLon0.09_PT050H.grib2 2026-04-29 14:59 425K
20260429T12Z_MSC_RDPS_WindV_IsbL-0150_RLatLon0.09_PT050H.grib2 2026-04-29 14:59 390K
20260429T12Z_MSC_RDPS_WindV_IsbL-0175_RLatLon0.09_PT050H.grib2 2026-04-29 14:59 414K
20260429T12Z_MSC_RDPS_WindV_IsbL-0200_RLatLon0.09_PT050H.grib2 2026-04-29 14:59 333K
20260429T12Z_MSC_RDPS_WindV_IsbL-0225_RLatLon0.09_PT050H.grib2 2026-04-29 14:59 336K
20260429T12Z_MSC_RDPS_WindV_IsbL-0250_RLatLon0.09_PT050H.grib2 2026-04-29 14:59 336K
20260429T12Z_MSC_RDPS_WindV_IsbL-0275_RLatLon0.09_PT050H.grib2 2026-04-29 14:59 349K
20260429T12Z_MSC_RDPS_WindV_IsbL-0300_RLatLon0.09_PT050H.grib2 2026-04-29 14:59 346K
20260429T12Z_MSC_RDPS_WindV_IsbL-0350_RLatLon0.09_PT050H.grib2 2026-04-29 14:59 456K
20260429T12Z_MSC_RDPS_WindV_IsbL-0400_RLatLon0.09_PT050H.grib2 2026-04-29 14:59 457K
20260429T12Z_MSC_RDPS_WindV_IsbL-0450_RLatLon0.09_PT050H.grib2 2026-04-29 14:59 458K
20260429T12Z_MSC_RDPS_WindV_IsbL-0500_RLatLon0.09_PT050H.grib2 2026-04-29 14:59 460K
20260429T12Z_MSC_RDPS_WindV_IsbL-0550_RLatLon0.09_PT050H.grib2 2026-04-29 14:59 460K
20260429T12Z_MSC_RDPS_WindV_IsbL-0600_RLatLon0.09_PT050H.grib2 2026-04-29 14:59 451K
20260429T12Z_MSC_RDPS_WindV_IsbL-0650_RLatLon0.09_PT050H.grib2 2026-04-29 14:59 471K
20260429T12Z_MSC_RDPS_WindV_IsbL-0700_RLatLon0.09_PT050H.grib2 2026-04-29 14:59 492K
20260429T12Z_MSC_RDPS_WindV_IsbL-0750_RLatLon0.09_PT050H.grib2 2026-04-29 14:59 515K
20260429T12Z_MSC_RDPS_WindV_IsbL-0800_RLatLon0.09_PT050H.grib2 2026-04-29 14:59 557K
20260429T12Z_MSC_RDPS_WindV_IsbL-0850_RLatLon0.09_PT050H.grib2 2026-04-29 14:59 613K
20260429T12Z_MSC_RDPS_WindV_IsbL-0875_RLatLon0.09_PT050H.grib2 2026-04-29 14:59 770K
20260429T12Z_MSC_RDPS_WindV_IsbL-0900_RLatLon0.09_PT050H.grib2 2026-04-29 14:59 786K
20260429T12Z_MSC_RDPS_WindV_IsbL-0925_RLatLon0.09_PT050H.grib2 2026-04-29 14:59 795K
20260429T12Z_MSC_RDPS_WindV_IsbL-0950_RLatLon0.09_PT050H.grib2 2026-04-29 14:59 794K
20260429T12Z_MSC_RDPS_WindV_IsbL-0970_RLatLon0.09_PT050H.grib2 2026-04-29 14:59 791K
20260429T12Z_MSC_RDPS_WindV_IsbL-0985_RLatLon0.09_PT050H.grib2 2026-04-29 14:59 787K
20260429T12Z_MSC_RDPS_WindV_IsbL-1000_RLatLon0.09_PT050H.grib2 2026-04-29 14:59 782K
20260429T12Z_MSC_RDPS_WindV_IsbL-1015_RLatLon0.09_PT050H.grib2 2026-04-29 14:59 822K